Washington County, Wisconsin, United States
Lat: 43.37N, Lon: 88.22W
Wx Zone: WIZ059
Local Info
Past Weather Observations for Today

NOTE: This archive is for the closest National Weather Service station to Washington County. Information may differ from the station used for current weather conditions.

Click here for Long-term Archive

Time Weather Temperature Dewpoint Humidity Pressure Winds Precip Visibility
21:15
Partly Cloudy
64°F / 18°C 55°F / 13°C 73% 29.74 in
(1007 mb)
SW 16.1 mph
(SW 26 kph)
- 10SM
20:55
Mostly Cloudy
64°F / 18°C 55°F / 13°C 73% 29.74 in
(1007 mb)
SW 18.4 mph
(SW 30 kph)
- 10SM
20:35
Partly Cloudy
64°F / 18°C 55°F / 13°C 73% 29.74 in
(1007 mb)
SW 10.4 mph
(SW 17 kph)
- 10SM
20:15
Partly Cloudy
66°F / 19°C 55°F / 13°C 68% 29.74 in
(1007 mb)
SW 16.1 mph
(SW 26 kph)
- 10SM
19:55
Partly Cloudy
66°F / 19°C 55°F / 13°C 68% 29.71 in
(1006 mb)
SW 16.1 mph
(SW 26 kph)
- 10SM
19:35
Partly Cloudy
66°F / 19°C 55°F / 13°C 68% 29.71 in
(1006 mb)
SW 18.4 mph
(SW 30 kph)
- 10SM
19:15
Overcast
68°F / 20°C 55°F / 13°C 64% 29.71 in
(1006 mb)
SW 15 mph
(SW 24 kph)
- 10SM
18:55
Overcast
68°F / 20°C 55°F / 13°C 64% 29.71 in
(1006 mb)
SSW 15 mph
(SSW 24 kph)
- 10SM
18:35
Overcast
70°F / 21°C 55°F / 13°C 60% 29.71 in
(1006 mb)
SW 24.2 mph
(SW 39 kph)
- 10SM
18:15
Overcast
70°F / 21°C 61°F / 16°C 73% 29.68 in
(1005 mb)
SSE 10.4 mph
(SSE 17 kph)
- 10SM
17:55
Mostly Cloudy
70°F / 21°C 59°F / 15°C 69% 29.68 in
(1005 mb)
SSE 12.7 mph
(SSE 20 kph)
- 10SM
17:35
Overcast
72°F / 22°C 59°F / 15°C 65% 29.68 in
(1005 mb)
SSE 18.4 mph
(SSE 30 kph)
- 10SM
17:15
Mostly Cloudy
73°F / 23°C 57°F / 14°C 57% 29.68 in
(1005 mb)
S 11.5 mph
(S 19 kph)
- 10SM
16:55
Partly Cloudy
73°F / 23°C 61°F / 16°C 65% 29.68 in
(1005 mb)
S 16.1 mph
(S 26 kph)
- 10SM
16:35
Partly Cloudy
73°F / 23°C 61°F / 16°C 65% 29.68 in
(1005 mb)
SSE 10.4 mph
(SSE 17 kph)
- 10SM
16:15
Mostly Cloudy
75°F / 24°C 61°F / 16°C 61% 29.68 in
(1005 mb)
SSE 9.2 mph
(SSE 15 kph)
- 10SM
15:55
Partly Cloudy
75°F / 24°C 61°F / 16°C 61% 29.68 in
(1005 mb)
SSE 17.3 mph
(SSE 28 kph)
- 10SM
15:35
Partly Cloudy
73°F / 23°C 63°F / 17°C 69% 29.68 in
(1005 mb)
SSE 15 mph
(SSE 24 kph)
- 10SM
15:15
Mostly Cloudy
73°F / 23°C 63°F / 17°C 69% 29.68 in
(1005 mb)
SSE 13.8 mph
(SSE 22 kph)
- 10SM
14:55
Overcast
70°F / 21°C 64°F / 18°C 83% 29.71 in
(1006 mb)
S 11.5 mph
(S 19 kph)
- 10SM
14:35
Overcast
68°F / 20°C 64°F / 18°C 88% 29.71 in
(1006 mb)
SSE 9.2 mph
(SSE 15 kph)
- 10SM
14:15
Overcast
66°F / 19°C 63°F / 17°C 88% 29.71 in
(1006 mb)
SE 8.1 mph
(SE 13 kph)
- 10SM
13:55
Overcast
Fog And Mist
64°F / 18°C 63°F / 17°C 94% 29.71 in
(1006 mb)
SE 9.2 mph
(SE 15 kph)
- 5SM
13:35
Overcast
Fog And Mist
64°F / 18°C 63°F / 17°C 94% 29.74 in
(1007 mb)
SE 12.7 mph
(SE 20 kph)
- 5SM
13:15
Overcast
Fog And Mist
63°F / 17°C 61°F / 16°C 94% 29.74 in
(1007 mb)
SE 15 mph
(SE 24 kph)
- 5SM
12:55
Overcast
Light Rain
63°F / 17°C 63°F / 17°C 100% 29.77 in
(1008 mb)
SE 13.8 mph
(SE 22 kph)
0.11 in
(2.79 mm)
4SM
12:35
Overcast
Rain
64°F / 18°C 61°F / 16°C 88% 29.77 in
(1008 mb)
SE 10.4 mph
(SE 17 kph)
0.09 in
(2.29 mm)
2SM
12:15
Overcast
Light Rain
64°F / 18°C 63°F / 17°C 94% 29.8 in
(1009 mb)
SE 11.5 mph
(SE 19 kph)
0.01 in
(0.25 mm)
3SM
11:55
Overcast
Light Rain
66°F / 19°C 63°F / 17°C 88% 29.83 in
(1010 mb)
SE 10.4 mph
(SE 17 kph)
0.02 in
(0.51 mm)
3SM
11:35
Overcast
Light Rain
66°F / 19°C 63°F / 17°C 88% 29.83 in
(1010 mb)
SE 8.1 mph
(SE 13 kph)
0.01 in
(0.25 mm)
4SM
11:15
Overcast
Light Rain
68°F / 20°C 63°F / 17°C 83% 29.83 in
(1010 mb)
SE 9.2 mph
(SE 15 kph)
- 7SM
10:55
Overcast
70°F / 21°C 63°F / 17°C 78% 29.83 in
(1010 mb)
SE 9.2 mph
(SE 15 kph)
- 10SM
10:35
Overcast
72°F / 22°C 63°F / 17°C 73% 29.83 in
(1010 mb)
SSE 8.1 mph
(SSE 13 kph)
- 10SM
10:15
Overcast
72°F / 22°C 63°F / 17°C 73% 29.83 in
(1010 mb)
SE 9.2 mph
(SE 15 kph)
- 10SM
09:55
Mostly Cloudy
72°F / 22°C 63°F / 17°C 73% 29.83 in
(1010 mb)
SSE 10.4 mph
(SSE 17 kph)
- 10SM
09:35
Overcast
72°F / 22°C 63°F / 17°C 73% 29.86 in
(1011 mb)
SSE 8.1 mph
(SSE 13 kph)
- 10SM
09:15
Overcast
72°F / 22°C 64°F / 18°C 78% 29.86 in
(1011 mb)
SSE 8.1 mph
(SSE 13 kph)
- 10SM
08:55
Overcast
72°F / 22°C 64°F / 18°C 78% 29.89 in
(1012 mb)
S 5.8 mph
(S 9 kph)
- 10SM
08:35
Overcast
70°F / 21°C 64°F / 18°C 83% 29.89 in
(1012 mb)
S 8.1 mph
(S 13 kph)
- 10SM
08:15
Mostly Cloudy
70°F / 21°C 64°F / 18°C 83% 29.89 in
(1012 mb)
S 9.2 mph
(S 15 kph)
- 10SM
07:55
Partly Cloudy
70°F / 21°C 64°F / 18°C 83% 29.89 in
(1012 mb)
S 5.8 mph
(S 9 kph)
- 10SM
07:35
Partly Cloudy
70°F / 21°C 64°F / 18°C 83% 29.89 in
(1012 mb)
S 6.9 mph
(S 11 kph)
- 10SM
07:15
Partly Cloudy
70°F / 21°C 64°F / 18°C 83% 29.89 in
(1012 mb)
SSE 6.9 mph
(SSE 11 kph)
- 10SM
06:55
Partly Cloudy
70°F / 21°C 64°F / 18°C 83% 29.92 in
(1013 mb)
S 8.1 mph
(S 13 kph)
- 10SM
06:35
Partly Cloudy
70°F / 21°C 64°F / 18°C 83% 29.92 in
(1013 mb)
S 5.8 mph
(S 9 kph)
- 10SM
06:15
Clear
68°F / 20°C 63°F / 17°C 83% 29.92 in
(1013 mb)
S 5.8 mph
(S 9 kph)
- 10SM
05:55
Clear
68°F / 20°C 63°F / 17°C 83% 29.92 in
(1013 mb)
S 4.6 mph
(S 7 kph)
- 10SM
05:35
Clear
66°F / 19°C 63°F / 17°C 88% 29.92 in
(1013 mb)
S 5.8 mph
(S 9 kph)
- 10SM
05:15
Clear
64°F / 18°C 63°F / 17°C 94% 29.92 in
(1013 mb)
S 6.9 mph
(S 11 kph)
- 10SM
04:55
Clear
64°F / 18°C 61°F / 16°C 88% 29.92 in
(1013 mb)
S 4.6 mph
(S 7 kph)
- 10SM
04:35
Clear
64°F / 18°C 61°F / 16°C 88% 29.92 in
(1013 mb)
S 4.6 mph
(S 7 kph)
- 10SM
04:15
Clear
64°F / 18°C 61°F / 16°C 88% 29.89 in
(1012 mb)
S 3.5 mph
(S 6 kph)
- 10SM
03:55
Clear
64°F / 18°C 61°F / 16°C 88% 29.89 in
(1012 mb)
S 3.5 mph
(S 6 kph)
- 10SM
03:35
Clear
64°F / 18°C 61°F / 16°C 88% 29.89 in
(1012 mb)
S 5.8 mph
(S 9 kph)
- 10SM
03:15
Clear
64°F / 18°C 61°F / 16°C 88% 29.89 in
(1012 mb)
S 6.9 mph
(S 11 kph)
- 10SM
02:55
Clear
64°F / 18°C 59°F / 15°C 83% 29.89 in
(1012 mb)
S 5.8 mph
(S 9 kph)
- 10SM
02:35
Clear
64°F / 18°C 59°F / 15°C 83% 29.89 in
(1012 mb)
S 4.6 mph
(S 7 kph)
- 10SM
02:15
Clear
64°F / 18°C 59°F / 15°C 83% 29.89 in
(1012 mb)
S 6.9 mph
(S 11 kph)
- 10SM
01:55
Clear
64°F / 18°C 59°F / 15°C 83% 29.89 in
(1012 mb)
S 5.8 mph
(S 9 kph)
- 10SM
01:35
Clear
63°F / 17°C 57°F / 14°C 83% 29.89 in
(1012 mb)
S 4.6 mph
(S 7 kph)
- 10SM
01:15
Clear
63°F / 17°C 57°F / 14°C 83% 29.89 in
(1012 mb)
Calm - 10SM
00:55
Clear
64°F / 18°C 59°F / 15°C 83% 29.89 in
(1012 mb)
SSE 4.6 mph
(SSE 7 kph)
- 10SM
00:35
Clear
66°F / 19°C 59°F / 15°C 78% 29.89 in
(1012 mb)
SSE 5.8 mph
(SSE 9 kph)
- 10SM
00:15
Clear
68°F / 20°C 59°F / 15°C 73% 29.89 in
(1012 mb)
S 8.1 mph
(S 13 kph)
- 10SM
Time Weather Temperature Dewpoint Humidity Pressure Winds Precip Visibility


Weather for websites

WeatherForYou.com, LLC is not responsible for any damages or problems caused by this service. Current weather conditions are obtained from the closest station including government and personal stations which may have varying degrees of accuracy. Weather forecasts are derived from the NOAA NDFD. Like all things, this site belongs to Jesus Christ... He just trusts us to maintain it. If you have any questions or comments email webmaster@weatherforyou.com

Copyright © 2015, WeatherForYou.com LLC. All rights reserved.